Leesburg, VA

12:43 PM EDT on October 20, 2019 (GMT -0400)
Leesburg Executive

Weather History for KJYO - May, 2019

Change the Weather History Date:

Saturday, May 25, 2019

  Actual Average (KIAD) Record (KIAD)
Temperature  
Mean Temperature 73 °F -  
Max Temperature 84 °F 75 °F 92 °F (1991)
Min Temperature 62 °F 53 °F 36 °F (1967)
Cooling Degree Days 8    
Growing Degree Days 23 (Base 50)    
Moisture  
Dew Point 63 °F    
Average Humidity 72    
Maximum Humidity 94    
Minimum Humidity 51    
Precipitation  
Precipitation 0.00 in - - ()
Sea Level Pressure  
Sea Level Pressure 30.13 in    
Wind  
Wind Speed 4 mph (SSE)    
Max Wind Speed 15 mph    
Max Gust Speed 20 mph    
Visibility 10 miles    
Events Thunderstorm    
Averages and records for this station are not official NWS values.
T = Trace of Precipitation, MM = Missing Value Source: NWS Daily Summary

Daily Weather History Graph

Daily Weather History Graph

Search for Another Location

Airport or City:

Astronomy

May. 25, 2019 Rise Set
Actual Time 5:49 AM EDT 8:24 PM EDT
Civil Twilight 5:18 AM EDT 8:55 PM EDT
Nautical Twilight 4:40 AM EDT 9:34 PM EDT
Astronomical Twilight 3:57 AM EDT 10:17 PM EDT
Moon 1:25 AM EDT (5/25) 11:46 AM EDT (5/25)
Length of Visible Light 15h 36m
Length of Day
14h 34m
Waning Gibbous, 60% of the Moon is Illuminated
May 25
Waning Gibbous
May 26
Last Quarter
Jun 3
New
Jun 10
First Quarter
Jun 17
Full

Hourly Weather History & Observations

Time (EDT) Temp. Heat Index Dew Point Humidity Pressure Visibility Wind Dir Wind Speed Gust Speed Precip Events Conditions
12:15 AM 64.4 °F - 60.8 °F 88% 30.13 in 10.0 mi Calm Calm - N/A   Clear
12:35 AM 64.4 °F - 59.0 °F 83% 30.12 in 10.0 mi Calm Calm - N/A   Clear
12:55 AM 64.4 °F - 60.8 °F 88% 30.13 in 10.0 mi Calm Calm - N/A   Clear
1:15 AM 64.4 °F - 60.8 °F 88% 30.13 in 10.0 mi Calm Calm - N/A   Clear
1:35 AM 64.4 °F - 59.0 °F 83% 30.13 in 10.0 mi Calm Calm - N/A   Clear
1:55 AM 64.4 °F - 60.8 °F 88% 30.13 in 10.0 mi Calm Calm - N/A   Clear
2:15 AM 64.4 °F - 59.0 °F 83% 30.13 in 10.0 mi NNW 3.5 mph - N/A   Clear
2:35 AM 62.6 °F - 60.8 °F 94% 30.13 in 10.0 mi Calm Calm - N/A   Scattered Clouds
2:55 AM 62.6 °F - 60.8 °F 94% 30.13 in 10.0 mi Calm Calm - N/A   Scattered Clouds
3:15 AM 62.6 °F - 59.0 °F 88% 30.14 in 10.0 mi Calm Calm - N/A   Mostly Cloudy
3:35 AM 64.4 °F - 60.8 °F 88% 30.14 in 10.0 mi Calm Calm - N/A   Overcast
3:55 AM 64.4 °F - 60.8 °F 88% 30.15 in 10.0 mi Calm Calm - N/A   Overcast
4:15 AM 64.4 °F - 59.0 °F 83% 30.15 in 10.0 mi ENE 3.5 mph - N/A   Overcast
4:35 AM 64.4 °F - 59.0 °F 83% 30.16 in 10.0 mi Calm Calm - N/A   Overcast
4:55 AM 66.2 °F - 59.0 °F 78% 30.17 in 10.0 mi Calm Calm - N/A   Overcast
5:15 AM 66.2 °F - 59.0 °F 78% 30.17 in 10.0 mi Calm Calm - N/A   Overcast
5:35 AM 68.0 °F - 59.0 °F 73% 30.18 in 10.0 mi SE 3.5 mph - N/A   Overcast
5:55 AM 68.0 °F - 59.0 °F 73% 30.18 in 10.0 mi Calm Calm - N/A   Overcast
6:15 AM 66.2 °F - 59.0 °F 78% 30.19 in 10.0 mi Calm Calm - N/A   Overcast
6:35 AM 66.2 °F - 59.0 °F 78% 30.20 in 10.0 mi Calm Calm - N/A   Overcast
6:55 AM 66.2 °F - 59.0 °F 78% 30.20 in 10.0 mi SE 4.6 mph - N/A   Overcast
7:15 AM 68.0 °F - 59.0 °F 73% 30.20 in 10.0 mi SSE 5.8 mph - N/A   Overcast
7:35 AM 68.0 °F - 57.2 °F 68% 30.21 in 10.0 mi SSE 9.2 mph - N/A   Overcast
7:55 AM 69.8 °F - 57.2 °F 64% 30.21 in 10.0 mi SSE 11.5 mph 16.1 mph N/A   Mostly Cloudy
8:15 AM 69.8 °F - 57.2 °F 64% 30.21 in 10.0 mi SSE 9.2 mph 16.1 mph N/A   Scattered Clouds
8:35 AM 69.8 °F - 57.2 °F 64% 30.21 in 10.0 mi South 6.9 mph - N/A   Clear
8:55 AM 69.8 °F - 57.2 °F 64% 30.21 in 10.0 mi SSE 8.1 mph - N/A   Scattered Clouds
9:15 AM 69.8 °F - 59.0 °F 68% 30.21 in 10.0 mi SSE 9.2 mph - N/A   Scattered Clouds
9:35 AM 71.6 °F - 59.0 °F 64% 30.21 in 10.0 mi SSE 10.4 mph - N/A   Clear
9:55 AM 73.4 °F - 59.0 °F 61% 30.21 in 10.0 mi SSE 12.7 mph - N/A   Clear
10:15 AM 73.4 °F - 59.0 °F 61% 30.20 in 10.0 mi South 9.2 mph - N/A   Mostly Cloudy
10:35 AM 73.4 °F - 60.8 °F 65% 30.20 in 10.0 mi South 10.4 mph - N/A   Overcast
10:55 AM 75.2 °F - 60.8 °F 61% 30.20 in 10.0 mi South 8.1 mph - N/A   Scattered Clouds
11:15 AM 75.2 °F - 60.8 °F 61% 30.19 in 10.0 mi South 8.1 mph - N/A   Clear
11:35 AM 77.0 °F - 60.8 °F 57% 30.19 in 10.0 mi SSE 6.9 mph - N/A   Scattered Clouds
11:55 AM 77.0 °F - 60.8 °F 57% 30.19 in 10.0 mi SSE 9.2 mph - N/A   Scattered Clouds
12:15 PM 78.8 °F - 62.6 °F 57% 30.18 in 10.0 mi South 8.1 mph 16.1 mph N/A   Clear
12:35 PM 78.8 °F - 62.6 °F 57% 30.17 in 10.0 mi South 9.2 mph 19.6 mph N/A   Clear
12:55 PM 80.6 °F 81.8 °F 62.6 °F 54% 30.16 in 10.0 mi South 11.5 mph 17.3 mph N/A   Clear
1:15 PM 80.6 °F 82.3 °F 64.4 °F 58% 30.15 in 10.0 mi South 10.4 mph - N/A   Clear
1:35 PM 82.4 °F 83.4 °F 62.6 °F 51% 30.13 in 10.0 mi SSW 8.1 mph - N/A   Clear
1:55 PM 82.4 °F 83.9 °F 64.4 °F 54% 30.12 in 10.0 mi SSE 13.8 mph 18.4 mph N/A   Clear
2:15 PM 82.4 °F 83.4 °F 62.6 °F 51% 30.11 in 10.0 mi SSE 15.0 mph - N/A   Clear
2:35 PM 82.4 °F 83.9 °F 64.4 °F 54% 30.11 in 10.0 mi SSW 11.5 mph 18.4 mph N/A   Clear
2:55 PM 82.4 °F 83.9 °F 64.4 °F 54% 30.10 in 10.0 mi South 8.1 mph - N/A   Clear
3:15 PM 84.2 °F 85.6 °F 64.4 °F 51% 30.10 in 10.0 mi South 15.0 mph - N/A   Clear
3:35 PM 84.2 °F 85.6 °F 64.4 °F 51% 30.09 in 10.0 mi South 11.5 mph 16.1 mph N/A   Clear
3:55 PM 84.2 °F 85.6 °F 64.4 °F 51% 30.09 in 10.0 mi SSE 12.7 mph - N/A   Scattered Clouds
4:15 PM 84.2 °F 86.6 °F 66.2 °F 55% 30.08 in 10.0 mi South 9.2 mph - N/A   Scattered Clouds
4:35 PM 82.4 °F 84.6 °F 66.2 °F 58% 30.07 in 10.0 mi SSE 10.4 mph - N/A   Clear
4:55 PM 82.4 °F 84.6 °F 66.2 °F 58% 30.06 in 10.0 mi SSE 9.2 mph - N/A   Clear
5:15 PM 80.6 °F 82.7 °F 66.2 °F 61% 30.06 in 10.0 mi SSE 12.7 mph - N/A   Clear
5:35 PM 80.6 °F 82.7 °F 66.2 °F 61% 30.06 in 10.0 mi SE 8.1 mph - N/A   Scattered Clouds
5:55 PM 80.6 °F 82.7 °F 66.2 °F 61% 30.06 in 10.0 mi SSE 9.2 mph - N/A   Scattered Clouds
6:15 PM 80.6 °F 83.2 °F 68.0 °F 65% 30.07 in 10.0 mi SSE 9.2 mph - N/A   Scattered Clouds
6:35 PM 78.8 °F - 68.0 °F 69% 30.08 in 10.0 mi SE 3.5 mph - N/A   Mostly Cloudy
6:55 PM 78.8 °F - 68.0 °F 69% 30.08 in 10.0 mi Calm Calm - N/A   Overcast
7:15 PM 78.8 °F - 71.6 °F 78% 30.06 in 10.0 mi SE 10.4 mph - N/A   Overcast
7:35 PM 78.8 °F - 69.8 °F 74% 30.05 in 10.0 mi SSE 9.2 mph - N/A Thunderstorm Scattered Clouds
8:15 PM 77.0 °F - 68.0 °F 74% 30.06 in 10.0 mi South 9.2 mph - N/A   Mostly Cloudy
8:35 PM 77.0 °F - 68.0 °F 74% 30.06 in 10.0 mi South 10.4 mph - N/A   Mostly Cloudy
8:55 PM 75.2 °F - 69.8 °F 83% 30.05 in 10.0 mi South 10.4 mph - N/A   Scattered Clouds
9:15 PM 73.4 °F - 69.8 °F 88% 30.05 in 10.0 mi South 6.9 mph - N/A   Scattered Clouds
9:35 PM 73.4 °F - 69.8 °F 88% 30.06 in 7.0 mi South 6.9 mph - N/A   Clear
9:55 PM 71.6 °F - 69.8 °F 94% 30.08 in 10.0 mi SSW 4.6 mph - N/A   Clear
10:15 PM 71.6 °F - 68.0 °F 88% 30.07 in 10.0 mi South 6.9 mph - N/A   Scattered Clouds
10:35 PM 71.6 °F - 68.0 °F 88% 30.06 in 10.0 mi South 6.9 mph - N/A   Clear
10:55 PM 69.8 °F - 68.0 °F 94% 30.06 in 10.0 mi South 5.8 mph - N/A   Clear
11:15 PM 69.8 °F - 68.0 °F 94% 30.05 in 10.0 mi SSW 6.9 mph - N/A   Scattered Clouds
11:35 PM 69.8 °F - 68.0 °F 94% 30.05 in 10.0 mi SW 4.6 mph - N/A Thunderstorm Scattered Clouds
11:55 PM 69.8 °F - 68.0 °F 94% 30.03 in 10.0 mi SW 3.5 mph - N/A Thunderstorm Clear